| Date | Time | Temp. (oF) | Dew Point (oF) | Rel. Hum. (%) | Press. (in.) | Wind Dir. | Wind Speed (mph) | Hourly Rainfall (in.) |
|
|---|---|---|---|---|---|---|---|---|---|
| 1 | 04/29 | 23:58 | 44 | 34 | 68 | 29.95 | W | 4 | 0.00 |
| 2 | 04/29 | 23:00 | 45 | 33 | 63 | 29.94 | WNW | 7 | 0.00 |
| 3 | 04/29 | 22:00 | 45 | 33 | 65 | 29.94 | NW | 4 | 0.00 |
| 4 | 04/29 | 21:00 | 46 | 34 | 65 | 29.91 | NW | 6 | 0.00 |
| 5 | 04/29 | 20:00 | 47 | 35 | 63 | 29.89 | WNW | 4 | 0.00 |
| 6 | 04/29 | 19:00 | 47 | 35 | 64 | 29.86 | NNW | 9 | 0.00 |
| 7 | 04/29 | 18:00 | 49 | 36 | 61 | 29.83 | NW | 11 | 0.00 |
| 8 | 04/29 | 17:00 | 50 | 36 | 60 | 29.80 | W | 10 | 0.00 |
| 9 | 04/29 | 16:00 | 51 | 37 | 60 | 29.78 | WSW | 10 | 0.00 |
| 10 | 04/29 | 15:00 | 52 | 38 | 60 | 29.77 | NW | 14 | 0.00 |
| 11 | 04/29 | 14:00 | 51 | 37 | 60 | 29.77 | NW | 8 | 0.00 |
| 12 | 04/29 | 13:00 | 51 | 38 | 62 | 29.76 | WNW | 11 | 0.00 |
| 13 | 04/29 | 12:00 | 51 | 37 | 61 | 29.76 | NW | 10 | 0.00 |
| 14 | 04/29 | 11:00 | 50 | 40 | 69 | 29.75 | WNW | 19 | 0.00 |
| 15 | 04/29 | 10:00 | 50 | 40 | 70 | 29.74 | WNW | 10 | 0.00 |
| 16 | 04/29 | 09:00 | 51 | 42 | 72 | 29.73 | NW | 11 | 0.00 |
| 17 | 04/29 | 08:00 | 52 | 42 | 71 | 29.72 | NW | 13 | 0.00 |
| 18 | 04/29 | 07:00 | 53 | 43 | 69 | 29.68 | W | 10 | 0.00 |
| 19 | 04/29 | 06:00 | 54 | 43 | 68 | 29.65 | W | 5 | 0.00 |
| 20 | 04/29 | 05:00 | 55 | 46 | 72 | 29.64 | NW | 7 | 0.00 |
| 21 | 04/29 | 04:00 | 56 | 46 | 70 | 29.62 | W | 7 | 0.00 |
| 22 | 04/29 | 03:00 | 58 | 48 | 70 | 29.59 | W | 5 | 0.00 |
| 23 | 04/29 | 02:00 | 59 | 49 | 71 | 29.57 | NW | 6 | 0.00 |
| 24 | 04/29 | 01:00 | 61 | 52 | 74 | 29.55 | W | 3 | 0.00 |